PulseSat

PulseSat

MOLNIYA 3-10

Last updated on Feb. 17, 2019, 3:06 a.m. UTC

1 11057U 78095A   19046.52208516  .00001033  00000-0  14135-3 0  9996
2 11057  62.5069 150.7539 5979897 287.1860  18.3376  4.08339945333866
UTC
Height (km)
Latitude
Longitude
Inclination
Orbital Period

Next 30 passes for location: Hong Kong

Rise time Rise Azimuth (degrees) Set time Set Azimuth (degrees) Duration Max altitude (degrees)

No matching passes for this satellites

PulseSat

PulseSat is the new satellites software and hardware trackering solution by Pulsely.
Satellite Two Line Element Set source: US Air Force Space Command

Download PulseSat for iOS
© 2017 Pulsely Limited